Time,TemperatureF,DewpointF,PressureIn,WindDirection,WindDirectionDegrees,WindSpeedMPH,WindSpeedGustMPH,Humidity,HourlyPrecipIn,Conditions,Clouds,dailyrainin,SolarRadiationWatts/m^2,SoftwareType,DateUTC
2013-10-02 00:00:00,67.7,66.2,29.95,South,173,4.0,4.0,95,0.00,,,0.00,0,Wunderground v.1.15,2013-10-02 05:00:00,
2013-10-02 00:10:00,67.6,66.1,29.95,South,175,3.0,4.0,95,0.00,,,0.00,0,Wunderground v.1.15,2013-10-02 05:10:00,
2013-10-02 00:15:00,67.5,66.0,29.96,South,175,3.0,4.0,95,0.00,,,0.00,0,Wunderground v.1.15,2013-10-02 05:15:00,
2013-10-02 00:20:00,67.5,66.0,29.96,South,175,3.0,4.0,95,0.00,,,0.00,0,Wunderground v.1.15,2013-10-02 05:20:00,
2013-10-02 00:25:00,67.4,65.9,29.96,South,175,3.0,4.0,95,0.00,,,0.00,0,Wunderground v.1.15,2013-10-02 05:25:00,
2013-10-02 00:30:00,67.3,65.8,29.96,South,175,3.0,3.0,95,0.00,,,0.00,0,Wunderground v.1.15,2013-10-02 05:30:00,
2013-10-02 00:35:00,67.2,65.7,29.96,South,175,3.0,3.0,95,0.00,,,0.00,0,Wunderground v.1.15,2013-10-02 05:35:00,
2013-10-02 00:40:00,67.2,65.7,29.96,South,175,3.0,3.0,95,0.00,,,0.00,0,Wunderground v.1.15,2013-10-02 05:40:00,
2013-10-02 00:45:00,67.0,65.5,29.96,South,175,3.0,3.0,95,0.00,,,0.00,0,Wunderground v.1.15,2013-10-02 05:45:00,
2013-10-02 00:50:00,67.0,65.5,29.96,South,175,2.0,3.0,95,0.00,,,0.00,0,Wunderground v.1.15,2013-10-02 05:50:00,
2013-10-02 00:55:00,67.0,65.5,29.97,South,175,2.0,3.0,95,0.00,,,0.00,0,Wunderground v.1.15,2013-10-02 05:55:00,
2013-10-02 01:00:00,66.9,65.4,29.97,South,175,2.0,4.0,95,0.00,,,0.00,0,Wunderground v.1.15,2013-10-02 06:00:00,
2013-10-02 01:10:00,66.7,65.2,29.97,South,175,3.0,3.0,95,0.00,,,0.00,0,Wunderground v.1.15,2013-10-02 06:10:00,
2013-10-02 01:15:00,66.6,65.1,29.97,South,175,2.0,3.0,95,0.00,,,0.00,0,Wunderground v.1.15,2013-10-02 06:15:00,
2013-10-02 01:25:00,66.3,64.8,29.97,South,175,2.0,4.0,95,0.00,,,0.00,0,Wunderground v.1.15,2013-10-02 06:25:00,
2013-10-02 01:30:00,66.1,64.6,29.97,South,175,2.0,2.0,95,0.00,,,0.00,0,Wunderground v.1.15,2013-10-02 06:30:00,
2013-10-02 01:35:00,65.9,64.4,29.98,South,175,1.0,2.0,95,0.00,,,0.00,0,Wunderground v.1.15,2013-10-02 06:35:00,
2013-10-02 01:40:00,65.7,64.2,29.97,South,175,1.0,1.0,95,0.00,,,0.00,0,Wunderground v.1.15,2013-10-02 06:40:00,
2013-10-02 01:45:00,65.5,64.0,29.98,South,175,1.0,1.0,95,0.00,,,0.00,0,Wunderground v.1.15,2013-10-02 06:45:00,
2013-10-02 01:50:00,65.3,63.8,29.98,South,175,1.0,1.0,95,0.00,,,0.00,0,Wunderground v.1.15,2013-10-02 06:50:00,
2013-10-02 01:55:00,65.1,63.6,29.98,South,175,1.0,1.0,95,0.00,,,0.00,0,Wunderground v.1.15,2013-10-02 06:55:00,
2013-10-02 02:00:00,65.0,63.5,29.98,South,175,2.0,2.0,95,0.00,,,0.00,0,Wunderground v.1.15,2013-10-02 07:00:00,
2013-10-02 02:10:00,64.8,63.3,29.98,South,175,1.0,2.0,95,0.00,,,0.00,0,Wunderground v.1.15,2013-10-02 07:10:00,
2013-10-02 02:15:00,64.6,63.1,29.98,South,175,1.0,2.0,95,0.00,,,0.00,0,Wunderground v.1.15,2013-10-02 07:15:00,
2013-10-02 02:20:00,64.6,63.1,29.98,South,175,1.0,2.0,95,0.00,,,0.00,0,Wunderground v.1.15,2013-10-02 07:20:00,
2013-10-02 02:30:00,64.6,63.4,29.98,South,175,1.0,2.0,96,0.00,,,0.00,0,Wunderground v.1.15,2013-10-02 07:30:00,
2013-10-02 02:35:00,64.7,63.5,29.98,South,175,2.0,4.0,96,0.00,,,0.00,0,Wunderground v.1.15,2013-10-02 07:35:00,
2013-10-02 02:40:00,64.8,63.6,29.98,South,175,2.0,2.0,96,0.00,,,0.00,0,Wunderground v.1.15,2013-10-02 07:40:00,
2013-10-02 02:45:00,64.8,63.6,29.98,South,175,1.0,2.0,96,0.00,,,0.00,0,Wunderground v.1.15,2013-10-02 07:45:00,
2013-10-02 02:50:00,64.9,63.7,29.98,South,175,2.0,3.0,96,0.00,,,0.00,0,Wunderground v.1.15,2013-10-02 07:50:00,
2013-10-02 02:55:00,65.0,63.8,29.98,South,175,2.0,3.0,96,0.00,,,0.00,0,Wunderground v.1.15,2013-10-02 07:55:00,
2013-10-02 03:05:00,65.2,64.3,29.98,South,175,3.0,4.0,97,0.00,,,0.00,0,Wunderground v.1.15,2013-10-02 08:05:00,
2013-10-02 03:10:00,65.3,64.4,29.98,South,175,3.0,4.0,97,0.00,,,0.00,0,Wunderground v.1.15,2013-10-02 08:10:00,
2013-10-02 03:15:00,65.3,64.4,29.98,South,175,3.0,4.0,97,0.00,,,0.00,0,Wunderground v.1.15,2013-10-02 08:15:00,
2013-10-02 03:20:00,65.3,64.4,29.98,South,175,3.0,3.0,97,0.00,,,0.00,0,Wunderground v.1.15,2013-10-02 08:20:00,
2013-10-02 03:25:00,65.2,64.3,29.98,South,175,2.0,3.0,97,0.00,,,0.00,0,Wunderground v.1.15,2013-10-02 08:25:00,
2013-10-02 03:35:00,64.8,63.6,29.98,South,175,1.0,2.0,96,0.00,,,0.00,0,Wunderground v.1.15,2013-10-02 08:35:00,
2013-10-02 03:40:00,64.5,63.3,29.98,South,175,1.0,2.0,96,0.00,,,0.00,0,Wunderground v.1.15,2013-10-02 08:40:00,
2013-10-02 03:45:00,64.2,63.0,29.98,South,175,0.0,2.0,96,0.00,,,0.00,0,Wunderground v.1.15,2013-10-02 08:45:00,
2013-10-02 03:50:00,63.8,62.6,29.98,South,175,0.0,0.0,96,0.00,,,0.00,0,Wunderground v.1.15,2013-10-02 08:50:00,
2013-10-02 03:55:00,63.4,62.2,29.98,South,175,0.0,0.0,96,0.00,,,0.00,0,Wunderground v.1.15,2013-10-02 08:55:00,
2013-10-02 04:05:00,62.9,61.7,29.98,South,175,0.0,0.0,96,0.00,,,0.00,0,Wunderground v.1.15,2013-10-02 09:05:00,
2013-10-02 04:10:00,62.8,61.6,29.98,South,175,0.0,0.0,96,0.00,,,0.00,0,Wunderground v.1.15,2013-10-02 09:10:00,
2013-10-02 04:15:00,62.6,61.4,29.98,South,175,0.0,0.0,96,0.00,,,0.00,0,Wunderground v.1.15,2013-10-02 09:15:00,
2013-10-02 04:20:00,62.4,61.2,29.98,South,175,0.0,0.0,96,0.00,,,0.00,0,Wunderground v.1.15,2013-10-02 09:20:00,
2013-10-02 04:25:00,62.2,61.0,29.98,South,175,0.0,0.0,96,0.00,,,0.00,0,Wunderground v.1.15,2013-10-02 09:25:00,
2013-10-02 04:30:00,62.0,60.8,29.98,South,175,0.0,0.0,96,0.00,,,0.00,0,Wunderground v.1.15,2013-10-02 09:30:00,
2013-10-02 04:40:00,62.0,60.8,29.99,South,175,0.0,0.0,96,0.00,,,0.00,0,Wunderground v.1.15,2013-10-02 09:40:00,
2013-10-02 04:45:00,62.1,61.2,29.99,South,175,0.0,0.0,97,0.00,,,0.00,0,Wunderground v.1.15,2013-10-02 09:45:00,
2013-10-02 04:50:00,62.2,61.3,29.99,South,175,0.0,0.0,97,0.00,,,0.00,0,Wunderground v.1.15,2013-10-02 09:50:00,
2013-10-02 04:55:00,62.3,61.4,29.99,South,175,0.0,0.0,97,0.00,,,0.00,0,Wunderground v.1.15,2013-10-02 09:55:00,
2013-10-02 05:00:00,62.2,61.0,29.99,South,175,0.0,0.0,96,0.00,,,0.00,0,Wunderground v.1.15,2013-10-02 10:00:00,
2013-10-02 05:05:00,62.0,60.8,29.99,South,175,0.0,0.0,96,0.00,,,0.00,0,Wunderground v.1.15,2013-10-02 10:05:00,
2013-10-02 05:10:00,61.7,60.5,29.99,South,175,0.0,0.0,96,0.00,,,0.00,0,Wunderground v.1.15,2013-10-02 10:10:00,
2013-10-02 05:15:00,61.2,60.1,29.99,South,175,0.0,0.0,96,0.00,,,0.00,0,Wunderground v.1.15,2013-10-02 10:15:00,
2013-10-02 05:20:00,60.9,59.8,29.99,South,175,0.0,0.0,96,0.00,,,0.00,0,Wunderground v.1.15,2013-10-02 10:20:00,
2013-10-02 05:25:00,60.7,59.6,29.99,South,175,0.0,0.0,96,0.00,,,0.00,0,Wunderground v.1.15,2013-10-02 10:25:00,
2013-10-02 05:30:00,60.6,59.5,30.00,South,175,0.0,0.0,96,0.00,,,0.00,0,Wunderground v.1.15,2013-10-02 10:30:00,
2013-10-02 05:35:00,60.5,59.4,30.00,South,175,0.0,0.0,96,0.00,,,0.00,0,Wunderground v.1.15,2013-10-02 10:35:00,
2013-10-02 05:45:00,60.5,59.4,30.00,South,175,0.0,0.0,96,0.00,,,0.00,0,Wunderground v.1.15,2013-10-02 10:45:00,
2013-10-02 05:50:00,60.3,59.2,30.00,South,175,0.0,0.0,96,0.00,,,0.00,0,Wunderground v.1.15,2013-10-02 10:50:00,
2013-10-02 05:55:00,60.2,59.3,30.00,South,175,0.0,0.0,97,0.00,,,0.00,0,Wunderground v.1.15,2013-10-02 10:55:00,
2013-10-02 06:00:00,60.1,59.2,30.00,South,175,0.0,0.0,97,0.00,,,0.00,0,Wunderground v.1.15,2013-10-02 11:00:00,
2013-10-02 06:05:00,60.0,59.1,30.00,South,175,0.0,0.0,97,0.00,,,0.00,0,Wunderground v.1.15,2013-10-02 11:05:00,
2013-10-02 06:15:00,59.8,58.9,30.00,South,175,0.0,0.0,97,0.00,,,0.00,0,Wunderground v.1.15,2013-10-02 11:15:00,
2013-10-02 06:20:00,59.8,58.9,30.00,South,175,0.0,0.0,97,0.00,,,0.00,0,Wunderground v.1.15,2013-10-02 11:20:00,
2013-10-02 06:25:00,59.8,58.9,30.00,South,175,0.0,0.0,97,0.00,,,0.00,0,Wunderground v.1.15,2013-10-02 11:25:00,
2013-10-02 06:30:00,59.9,59.0,30.00,South,175,0.0,0.0,97,0.00,,,0.00,0,Wunderground v.1.15,2013-10-02 11:30:00,
2013-10-02 06:35:00,59.9,59.0,30.00,South,175,0.0,0.0,97,0.00,,,0.00,0,Wunderground v.1.15,2013-10-02 11:35:00,
2013-10-02 06:40:00,59.8,58.9,30.00,South,175,0.0,0.0,97,0.00,,,0.00,0,Wunderground v.1.15,2013-10-02 11:40:00,
2013-10-02 06:50:00,59.9,59.0,30.00,South,175,0.0,0.0,97,0.00,,,0.01,0,Wunderground v.1.15,2013-10-02 11:50:00,
2013-10-02 06:55:00,60.0,59.1,30.00,South,175,0.0,0.0,97,0.00,,,0.01,0,Wunderground v.1.15,2013-10-02 11:55:00,
2013-10-02 07:00:00,60.2,59.3,30.00,South,175,0.0,0.0,97,0.00,,,0.01,0,Wunderground v.1.15,2013-10-02 12:00:00,
2013-10-02 07:05:00,60.3,59.4,30.01,South,175,0.0,0.0,97,0.00,,,0.01,7,Wunderground v.1.15,2013-10-02 12:05:00,
2013-10-02 07:10:00,60.4,59.5,30.00,South,175,0.0,0.0,97,0.00,,,0.01,11,Wunderground v.1.15,2013-10-02 12:10:00,
2013-10-02 07:20:00,60.5,59.6,30.01,South,175,0.0,0.0,97,0.00,,,0.01,18,Wunderground v.1.15,2013-10-02 12:20:00,
2013-10-02 07:25:00,60.6,59.7,30.01,South,175,0.0,0.0,97,0.00,,,0.01,23,Wunderground v.1.15,2013-10-02 12:25:00,
2013-10-02 07:30:00,60.7,59.8,30.01,South,175,0.0,0.0,97,0.00,,,0.01,23,Wunderground v.1.15,2013-10-02 12:30:00,
2013-10-02 07:35:00,60.7,59.8,30.01,South,175,0.0,0.0,97,0.00,,,0.01,26,Wunderground v.1.15,2013-10-02 12:35:00,
2013-10-02 07:40:00,60.6,59.7,30.01,South,175,0.0,0.0,97,0.00,,,0.01,44,Wunderground v.1.15,2013-10-02 12:40:00,
2013-10-02 07:45:00,60.7,59.8,30.01,South,175,0.0,0.0,97,0.00,,,0.01,49,Wunderground v.1.15,2013-10-02 12:45:00,
2013-10-02 07:55:00,61.1,60.2,30.02,South,175,0.0,0.0,97,0.00,,,0.01,67,Wunderground v.1.15,2013-10-02 12:55:00,
2013-10-02 08:00:00,61.4,60.8,30.02,South,175,0.0,0.0,98,0.00,,,0.01,84,Wunderground v.1.15,2013-10-02 13:00:00,
2013-10-02 08:05:00,61.8,61.2,30.02,South,175,0.0,0.0,98,0.00,,,0.01,95,Wunderground v.1.15,2013-10-02 13:05:00,
2013-10-02 08:10:00,62.2,61.6,30.02,South,175,0.0,0.0,98,0.00,,,0.01,86,Wunderground v.1.15,2013-10-02 13:10:00,
2013-10-02 08:15:00,62.4,61.8,30.02,South,175,0.0,0.0,98,0.00,,,0.01,86,Wunderground v.1.15,2013-10-02 13:15:00,
2013-10-02 08:25:00,63.0,62.4,30.02,South,175,0.0,0.0,98,0.00,,,0.01,128,Wunderground v.1.15,2013-10-02 13:25:00,
2013-10-02 08:30:00,63.5,62.9,30.02,South,175,0.0,0.0,98,0.00,,,0.01,134,Wunderground v.1.15,2013-10-02 13:30:00,
2013-10-02 08:35:00,63.8,63.2,30.02,South,175,0.0,0.0,98,0.00,,,0.01,153,Wunderground v.1.15,2013-10-02 13:35:00,
2013-10-02 08:40:00,64.2,63.6,30.02,South,175,0.0,0.0,98,0.00,,,0.01,153,Wunderground v.1.15,2013-10-02 13:40:00,
2013-10-02 08:45:00,64.6,64.0,30.02,South,175,0.0,0.0,98,0.00,,,0.01,149,Wunderground v.1.15,2013-10-02 13:45:00,
2013-10-02 08:50:00,64.8,64.2,30.02,South,175,0.0,0.0,98,0.00,,,0.01,137,Wunderground v.1.15,2013-10-02 13:50:00,
2013-10-02 09:00:00,65.2,64.6,30.03,South,175,0.0,0.0,98,0.00,,,0.01,186,Wunderground v.1.15,2013-10-02 14:00:00,
2013-10-02 09:05:00,65.4,64.8,30.03,South,175,0.0,1.0,98,0.00,,,0.01,181,Wunderground v.1.15,2013-10-02 14:05:00,
2013-10-02 09:10:00,65.7,65.1,30.03,South,175,0.0,0.0,98,0.00,,,0.01,178,Wunderground v.1.15,2013-10-02 14:10:00,
2013-10-02 09:15:00,65.9,65.3,30.03,South,175,0.0,0.0,98,0.00,,,0.01,193,Wunderground v.1.15,2013-10-02 14:15:00,
2013-10-02 09:20:00,66.2,65.6,30.03,South,175,0.0,0.0,98,0.00,,,0.01,211,Wunderground v.1.15,2013-10-02 14:20:00,
2013-10-02 09:30:00,66.7,66.1,30.03,South,175,0.0,0.0,98,0.00,,,0.01,260,Wunderground v.1.15,2013-10-02 14:30:00,
2013-10-02 09:35:00,67.1,66.5,30.03,South,175,0.0,0.0,98,0.00,,,0.01,265,Wunderground v.1.15,2013-10-02 14:35:00,
2013-10-02 09:40:00,67.3,66.7,30.03,South,175,0.0,0.0,98,0.00,,,0.01,220,Wunderground v.1.15,2013-10-02 14:40:00,
2013-10-02 09:45:00,67.5,66.9,30.03,South,175,0.0,0.0,98,0.00,,,0.01,253,Wunderground v.1.15,2013-10-02 14:45:00,
2013-10-02 09:50:00,67.7,67.1,30.03,South,175,0.0,0.0,98,0.00,,,0.01,301,Wunderground v.1.15,2013-10-02 14:50:00,
2013-10-02 09:55:00,67.9,67.3,30.03,South,175,0.0,0.0,98,0.00,,,0.01,309,Wunderground v.1.15,2013-10-02 14:55:00,
2013-10-02 10:05:00,68.1,67.5,30.03,South,175,1.0,1.0,98,0.00,,,0.01,466,Wunderground v.1.15,2013-10-02 15:05:00,
2013-10-02 10:10:00,68.8,68.2,30.03,South,175,0.0,0.0,98,0.00,,,0.01,533,Wunderground v.1.15,2013-10-02 15:10:00,
2013-10-02 10:15:00,69.2,68.6,30.03,South,175,0.0,0.0,98,0.00,,,0.01,649,Wunderground v.1.15,2013-10-02 15:15:00,
2013-10-02 10:20:00,69.3,68.7,30.03,South,175,0.0,0.0,98,0.00,,,0.01,592,Wunderground v.1.15,2013-10-02 15:20:00,
2013-10-02 10:25:00,69.6,69.0,30.03,South,175,0.0,0.0,98,0.00,,,0.01,533,Wunderground v.1.15,2013-10-02 15:25:00,
2013-10-02 10:35:00,69.5,68.9,30.03,South,175,0.0,0.0,98,0.00,,,0.01,554,Wunderground v.1.15,2013-10-02 15:35:00,
2013-10-02 10:40:00,69.8,69.2,30.03,South,175,0.0,0.0,98,0.00,,,0.01,566,Wunderground v.1.15,2013-10-02 15:40:00,
2013-10-02 10:45:00,70.3,69.7,30.02,South,175,0.0,0.0,98,0.00,,,0.01,577,Wunderground v.1.15,2013-10-02 15:45:00,
2013-10-02 10:50:00,70.8,70.2,30.02,South,175,0.0,0.0,98,0.00,,,0.01,585,Wunderground v.1.15,2013-10-02 15:50:00,
2013-10-02 10:55:00,71.1,70.2,30.02,South,175,0.0,0.0,97,0.00,,,0.01,596,Wunderground v.1.15,2013-10-02 15:55:00,
2013-10-02 11:00:00,71.5,70.6,30.02,South,175,0.0,0.0,97,0.00,,,0.01,605,Wunderground v.1.15,2013-10-02 16:00:00,
2013-10-02 11:05:00,72.2,71.0,30.02,South,175,0.0,0.0,96,0.00,,,0.01,615,Wunderground v.1.15,2013-10-02 16:05:00,
2013-10-02 11:10:00,72.9,70.1,30.01,South,175,1.0,2.0,91,0.00,,,0.01,622,Wunderground v.1.15,2013-10-02 16:10:00,
2013-10-02 11:15:00,73.8,68.3,30.02,South,175,1.0,2.0,83,0.00,,,0.01,629,Wunderground v.1.15,2013-10-02 16:15:00,
2013-10-02 11:20:00,74.7,69.5,30.02,South,175,1.0,3.0,84,0.00,,,0.01,640,Wunderground v.1.15,2013-10-02 16:20:00,
2013-10-02 11:25:00,75.7,69.1,30.02,South,175,1.0,3.0,80,0.00,,,0.01,649,Wunderground v.1.15,2013-10-02 16:25:00,
2013-10-02 11:30:00,76.4,68.7,30.01,South,175,2.0,2.0,77,0.00,,,0.01,654,Wunderground v.1.15,2013-10-02 16:30:00,
2013-10-02 11:40:00,77.6,69.0,30.01,SSE,166,2.0,2.0,75,0.00,,,0.01,668,Wunderground v.1.15,2013-10-02 16:40:00,
2013-10-02 11:45:00,78.1,69.5,30.01,SSE,164,3.0,3.0,75,0.00,,,0.01,675,Wunderground v.1.15,2013-10-02 16:45:00,
2013-10-02 11:50:00,78.5,70.3,30.01,SSE,164,3.0,3.0,76,0.00,,,0.01,682,Wunderground v.1.15,2013-10-02 16:50:00,
2013-10-02 11:55:00,79.0,69.2,30.01,SSE,158,4.0,4.0,72,0.00,,,0.01,682,Wunderground v.1.15,2013-10-02 16:55:00,
2013-10-02 12:00:00,79.3,69.5,30.01,SSE,158,3.0,3.0,72,0.00,,,0.01,686,Wunderground v.1.15,2013-10-02 17:00:00,
2013-10-02 12:10:00,79.5,69.3,30.01,ESE,117,6.0,6.0,71,0.00,,,0.01,698,Wunderground v.1.15,2013-10-02 17:10:00,
2013-10-02 12:15:00,79.8,70.0,30.00,ESE,120,4.0,9.0,72,0.00,,,0.01,696,Wunderground v.1.15,2013-10-02 17:15:00,
2013-10-02 12:20:00,80.0,69.7,30.00,ESE,119,4.0,7.0,71,0.00,,,0.01,705,Wunderground v.1.15,2013-10-02 17:20:00,
2013-10-02 12:25:00,80.1,69.0,30.00,SE,130,6.0,7.0,69,0.00,,,0.01,714,Wunderground v.1.15,2013-10-02 17:25:00,
2013-10-02 12:30:00,80.0,68.9,30.00,SE,127,6.0,7.0,69,0.00,,,0.01,719,Wunderground v.1.15,2013-10-02 17:30:00,
2013-10-02 12:35:00,79.8,68.7,30.00,ESE,117,7.0,7.0,69,0.00,,,0.01,715,Wunderground v.1.15,2013-10-02 17:35:00,
2013-10-02 12:45:00,80.3,69.2,30.00,SE,138,5.0,9.0,69,0.00,,,0.01,759,Wunderground v.1.15,2013-10-02 17:45:00,
2013-10-02 12:50:00,80.5,69.8,30.00,ESE,120,7.0,7.0,70,0.00,,,0.01,749,Wunderground v.1.15,2013-10-02 17:50:00,
2013-10-02 12:55:00,80.6,69.1,30.00,SSE,150,7.0,8.0,68,0.00,,,0.01,731,Wunderground v.1.15,2013-10-02 17:55:00,
2013-10-02 13:00:00,81.1,68.7,30.00,SE,138,6.0,6.0,66,0.00,,,0.01,766,Wunderground v.1.15,2013-10-02 18:00:00,
2013-10-02 13:10:00,81.4,68.9,29.99,SE,141,7.0,7.0,66,0.00,,,0.01,207,Wunderground v.1.15,2013-10-02 18:10:00,
2013-10-02 13:15:00,81.2,70.1,29.99,SE,133,7.0,11.0,69,0.00,,,0.01,420,Wunderground v.1.15,2013-10-02 18:15:00,
2013-10-02 13:20:00,81.1,70.4,29.99,SE,125,6.0,12.0,70,0.00,,,0.01,271,Wunderground v.1.15,2013-10-02 18:20:00,
2013-10-02 13:25:00,80.5,70.6,29.98,ESE,110,7.0,12.0,72,0.00,,,0.01,784,Wunderground v.1.15,2013-10-02 18:25:00,
2013-10-02 13:30:00,80.4,70.1,29.98,ESE,109,9.0,14.0,71,0.00,,,0.01,731,Wunderground v.1.15,2013-10-02 18:30:00,
2013-10-02 13:35:00,80.3,70.4,29.98,ESE,115,10.0,14.0,72,0.00,,,0.01,726,Wunderground v.1.15,2013-10-02 18:35:00,
2013-10-02 13:40:00,80.3,70.4,29.98,ESE,103,11.0,11.0,72,0.00,,,0.01,714,Wunderground v.1.15,2013-10-02 18:40:00,
2013-10-02 13:50:00,80.2,68.7,29.97,SE,125,9.0,9.0,68,0.00,,,0.01,700,Wunderground v.1.15,2013-10-02 18:50:00,
2013-10-02 13:55:00,80.4,69.3,29.97,SSE,153,9.0,10.0,69,0.00,,,0.01,689,Wunderground v.1.15,2013-10-02 18:55:00,
2013-10-02 14:00:00,80.9,67.6,29.97,SSE,150,9.0,9.0,64,0.00,,,0.01,679,Wunderground v.1.15,2013-10-02 19:00:00,
2013-10-02 14:10:00,81.5,68.1,29.97,SE,143,8.0,9.0,64,0.00,,,0.01,673,Wunderground v.1.15,2013-10-02 19:10:00,
2013-10-02 14:15:00,81.5,67.7,29.96,ESE,117,8.0,10.0,63,0.00,,,0.01,657,Wunderground v.1.15,2013-10-02 19:15:00,
2013-10-02 14:20:00,81.6,67.8,29.96,ESE,121,9.0,9.0,63,0.00,,,0.01,656,Wunderground v.1.15,2013-10-02 19:20:00,
2013-10-02 14:25:00,81.4,67.6,29.97,SE,126,9.0,12.0,63,0.00,,,0.01,670,Wunderground v.1.15,2013-10-02 19:25:00,
2013-10-02 14:30:00,81.4,67.6,29.96,SE,146,9.0,9.0,63,0.00,,,0.01,694,Wunderground v.1.15,2013-10-02 19:30:00,
2013-10-02 14:39:00,81.6,67.3,29.96,ESE,106,8.0,8.0,62,0.00,,,0.01,687,Wunderground v.1.15,2013-10-02 19:39:00,
2013-10-02 14:44:00,81.7,67.9,29.95,ESE,113,8.0,11.0,63,0.00,,,0.01,652,Wunderground v.1.15,2013-10-02 19:44:00,
2013-10-02 14:50:00,81.6,67.3,29.95,ESE,122,8.0,9.0,62,0.00,,,0.01,694,Wunderground v.1.15,2013-10-02 19:50:00,
2013-10-02 14:55:00,81.7,66.0,29.95,SE,133,7.0,10.0,59,0.00,,,0.01,712,Wunderground v.1.15,2013-10-02 19:55:00,
2013-10-02 15:00:00,82.3,67.5,29.95,ESE,122,6.0,10.0,61,0.00,,,0.01,684,Wunderground v.1.15,2013-10-02 20:00:00,
2013-10-02 15:10:00,82.5,66.7,29.96,SE,142,6.0,9.0,59,0.00,,,0.01,160,Wunderground v.1.15,2013-10-02 20:10:00,
2013-10-02 15:15:00,81.7,65.5,29.96,SE,127,7.0,9.0,58,0.00,,,0.01,213,Wunderground v.1.15,2013-10-02 20:15:00,
2013-10-02 15:20:00,81.2,66.5,29.96,SE,126,6.0,6.0,61,0.00,,,0.01,239,Wunderground v.1.15,2013-10-02 20:20:00,
2013-10-02 15:30:00,81.7,66.5,29.95,SE,132,6.0,6.0,60,0.00,,,0.01,279,Wunderground v.1.15,2013-10-02 20:30:00,
2013-10-02 15:35:00,81.9,67.1,29.95,SSE,153,6.0,11.0,61,0.00,,,0.01,661,Wunderground v.1.15,2013-10-02 20:35:00,
2013-10-02 15:40:00,82.5,63.6,29.95,South,184,5.0,5.0,53,0.00,,,0.01,617,Wunderground v.1.15,2013-10-02 20:40:00,
2013-10-02 15:45:00,83.1,67.3,29.94,SE,135,6.0,7.0,59,0.00,,,0.01,564,Wunderground v.1.15,2013-10-02 20:45:00,
2013-10-02 15:50:00,82.9,63.5,29.94,SE,146,5.0,5.0,52,0.00,,,0.01,139,Wunderground v.1.15,2013-10-02 20:50:00,
2013-10-02 15:55:00,82.8,65.0,29.94,South,173,4.0,6.0,55,0.00,,,0.01,482,Wunderground v.1.15,2013-10-02 20:55:00,
2013-10-02 16:00:00,82.8,64.5,29.94,South,177,4.0,4.0,54,0.00,,,0.01,469,Wunderground v.1.15,2013-10-02 21:00:00,
2013-10-02 16:10:00,82.9,65.6,29.93,SE,129,6.0,8.0,56,0.00,,,0.01,422,Wunderground v.1.15,2013-10-02 21:10:00,
2013-10-02 16:15:00,82.6,65.8,29.93,South,180,6.0,8.0,57,0.00,,,0.01,408,Wunderground v.1.15,2013-10-02 21:15:00,
2013-10-02 16:20:00,82.6,64.8,29.93,SE,134,5.0,6.0,55,0.00,,,0.01,394,Wunderground v.1.15,2013-10-02 21:20:00,
2013-10-02 16:25:00,82.5,65.2,29.93,SSE,149,5.0,6.0,56,0.00,,,0.01,374,Wunderground v.1.15,2013-10-02 21:25:00,
2013-10-02 16:35:00,82.4,66.1,29.92,SE,140,5.0,9.0,58,0.00,,,0.01,350,Wunderground v.1.15,2013-10-02 21:35:00,
2013-10-02 16:40:00,82.1,65.9,29.93,SE,136,6.0,6.0,58,0.00,,,0.01,330,Wunderground v.1.15,2013-10-02 21:40:00,
2013-10-02 16:45:00,82.1,65.4,29.92,SSE,158,6.0,6.0,57,0.00,,,0.01,315,Wunderground v.1.15,2013-10-02 21:45:00,
2013-10-02 16:50:00,82.1,65.9,29.92,SE,133,5.0,5.0,58,0.00,,,0.01,301,Wunderground v.1.15,2013-10-02 21:50:00,
2013-10-02 16:55:00,82.1,65.4,29.92,SSE,155,5.0,5.0,57,0.00,,,0.01,287,Wunderground v.1.15,2013-10-02 21:55:00,
2013-10-02 17:00:00,82.1,65.9,29.92,SE,130,5.0,7.0,58,0.00,,,0.01,272,Wunderground v.1.15,2013-10-02 22:00:00,
2013-10-02 17:05:00,81.9,66.6,29.92,SSE,153,7.0,7.0,60,0.00,,,0.01,250,Wunderground v.1.15,2013-10-02 22:05:00,
2013-10-02 17:10:00,81.7,66.0,29.92,SE,140,8.0,8.0,59,0.00,,,0.01,236,Wunderground v.1.15,2013-10-02 22:10:00,
2013-10-02 17:15:00,81.5,66.3,29.92,SSE,148,7.0,8.0,60,0.00,,,0.01,214,Wunderground v.1.15,2013-10-02 22:15:00,
2013-10-02 17:20:00,81.5,66.3,29.92,SE,132,5.0,6.0,60,0.00,,,0.01,199,Wunderground v.1.15,2013-10-02 22:20:00,
2013-10-02 17:25:00,81.4,66.7,29.92,SE,124,5.0,6.0,61,0.00,,,0.01,183,Wunderground v.1.15,2013-10-02 22:25:00,
2013-10-02 17:30:00,81.2,66.9,29.92,SE,133,6.0,6.0,62,0.00,,,0.01,156,Wunderground v.1.15,2013-10-02 22:30:00,
2013-10-02 17:40:00,81.0,67.2,29.93,ESE,122,5.0,7.0,63,0.00,,,0.01,125,Wunderground v.1.15,2013-10-02 22:40:00,
2013-10-02 17:45:00,80.8,67.0,29.93,ESE,123,6.0,7.0,63,0.00,,,0.01,111,Wunderground v.1.15,2013-10-02 22:45:00,
2013-10-02 17:50:00,80.7,67.4,29.93,ESE,123,4.0,4.0,64,0.00,,,0.01,91,Wunderground v.1.15,2013-10-02 22:50:00,
2013-10-02 17:55:00,80.6,67.7,29.93,ESE,123,4.0,4.0,65,0.00,,,0.01,77,Wunderground v.1.15,2013-10-02 22:55:00,
2013-10-02 18:00:00,80.5,67.6,29.93,ESE,123,3.0,3.0,65,0.00,,,0.01,63,Wunderground v.1.15,2013-10-02 23:00:00,
2013-10-02 18:05:00,80.3,67.9,29.93,ESE,123,2.0,3.0,66,0.00,,,0.01,35,Wunderground v.1.15,2013-10-02 23:05:00,
2013-10-02 18:15:00,79.7,67.8,29.93,ESE,123,2.0,2.0,67,0.00,,,0.01,16,Wunderground v.1.15,2013-10-02 23:15:00,
2013-10-02 18:20:00,79.3,67.4,29.93,ESE,123,2.0,2.0,67,0.00,,,0.01,12,Wunderground v.1.15,2013-10-02 23:20:00,
2013-10-02 18:25:00,78.8,66.9,29.93,ESE,123,2.0,2.0,67,0.00,,,0.01,11,Wunderground v.1.15,2013-10-02 23:25:00,
2013-10-02 18:30:00,78.4,67.0,29.93,ESE,123,1.0,1.0,68,0.00,,,0.01,7,Wunderground v.1.15,2013-10-02 23:30:00,
2013-10-02 18:35:00,78.0,67.0,29.93,ESE,123,1.0,1.0,69,0.00,,,0.01,5,Wunderground v.1.15,2013-10-02 23:35:00,
2013-10-02 18:45:00,77.3,67.2,29.93,ESE,123,0.0,0.0,71,0.00,,,0.01,0,Wunderground v.1.15,2013-10-02 23:45:00,
2013-10-02 18:50:00,76.9,67.2,29.93,ESE,123,0.0,0.0,72,0.00,,,0.01,0,Wunderground v.1.15,2013-10-02 23:50:00,
2013-10-02 18:55:00,76.5,66.8,29.92,ESE,123,0.0,0.0,72,0.00,,,0.01,0,Wunderground v.1.15,2013-10-02 23:55:00,
2013-10-02 19:00:00,75.8,66.5,29.92,ESE,123,0.0,0.0,73,0.00,,,0.01,0,Wunderground v.1.15,2013-10-03 00:00:00,
2013-10-02 19:05:00,75.2,66.3,29.92,ESE,123,0.0,0.0,74,0.00,,,0.01,0,Wunderground v.1.15,2013-10-03 00:05:00,
2013-10-02 19:10:00,74.7,66.2,29.92,ESE,123,0.0,0.0,75,0.00,,,0.01,0,Wunderground v.1.15,2013-10-03 00:10:00,
2013-10-02 19:20:00,73.8,65.8,29.92,ESE,123,0.0,0.0,76,0.00,,,0.01,0,Wunderground v.1.15,2013-10-03 00:20:00,
2013-10-02 19:25:00,73.4,65.4,29.92,ESE,123,0.0,0.0,76,0.00,,,0.01,0,Wunderground v.1.15,2013-10-03 00:25:00,
2013-10-02 19:30:00,73.0,65.4,29.92,ESE,123,0.0,0.0,77,0.00,,,0.01,0,Wunderground v.1.15,2013-10-03 00:30:00,
2013-10-02 19:35:00,72.5,65.6,29.92,ESE,123,0.0,0.0,79,0.00,,,0.01,0,Wunderground v.1.15,2013-10-03 00:35:00,
2013-10-02 19:40:00,72.0,65.8,29.92,ESE,123,0.0,0.0,81,0.00,,,0.01,0,Wunderground v.1.15,2013-10-03 00:40:00,
2013-10-02 19:50:00,71.2,65.4,29.92,ESE,123,0.0,0.0,82,0.00,,,0.01,0,Wunderground v.1.15,2013-10-03 00:50:00,
2013-10-02 19:55:00,70.8,65.4,29.92,ESE,123,0.0,0.0,83,0.00,,,0.01,0,Wunderground v.1.15,2013-10-03 00:55:00,
2013-10-02 20:00:00,70.6,65.2,29.92,ESE,123,0.0,0.0,83,0.00,,,0.01,0,Wunderground v.1.15,2013-10-03 01:00:00,
2013-10-02 20:05:00,70.3,65.2,29.92,ESE,123,0.0,0.0,84,0.00,,,0.01,0,Wunderground v.1.15,2013-10-03 01:05:00,
2013-10-02 20:10:00,70.0,64.9,29.92,ESE,123,0.0,0.0,84,0.00,,,0.01,0,Wunderground v.1.15,2013-10-03 01:10:00,
2013-10-02 20:15:00,69.7,65.0,29.92,ESE,123,0.0,0.0,85,0.00,,,0.01,0,Wunderground v.1.15,2013-10-03 01:15:00,
2013-10-02 20:25:00,68.8,64.4,29.92,ESE,123,0.0,0.0,86,0.00,,,0.01,0,Wunderground v.1.15,2013-10-03 01:25:00,
2013-10-02 20:30:00,68.4,64.4,29.91,ESE,123,0.0,0.0,87,0.00,,,0.01,0,Wunderground v.1.15,2013-10-03 01:30:00,
2013-10-02 20:35:00,68.1,64.4,29.91,ESE,123,0.0,0.0,88,0.00,,,0.01,0,Wunderground v.1.15,2013-10-03 01:35:00,
2013-10-02 20:40:00,67.8,63.8,29.92,ESE,123,0.0,0.0,87,0.00,,,0.01,0,Wunderground v.1.15,2013-10-03 01:40:00,
2013-10-02 20:45:00,67.5,63.8,29.92,ESE,123,0.0,0.0,88,0.00,,,0.01,0,Wunderground v.1.15,2013-10-03 01:45:00,
2013-10-02 20:55:00,67.4,64.0,29.92,ESE,123,0.0,0.0,89,0.00,,,0.01,0,Wunderground v.1.15,2013-10-03 01:55:00,
2013-10-02 21:00:00,67.4,64.4,29.92,ESE,123,0.0,0.0,90,0.00,,,0.01,0,Wunderground v.1.15,2013-10-03 02:00:00,
2013-10-02 21:05:00,67.5,64.5,29.92,ESE,123,0.0,2.0,90,0.00,,,0.01,0,Wunderground v.1.15,2013-10-03 02:05:00,
2013-10-02 21:10:00,67.5,64.5,29.92,ESE,123,0.0,0.0,90,0.00,,,0.01,0,Wunderground v.1.15,2013-10-03 02:10:00,
2013-10-02 21:15:00,67.6,64.9,29.92,ESE,123,1.0,1.0,91,0.00,,,0.01,0,Wunderground v.1.15,2013-10-03 02:15:00,
2013-10-02 21:20:00,67.8,65.1,29.92,ESE,123,1.0,1.0,91,0.00,,,0.01,0,Wunderground v.1.15,2013-10-03 02:20:00,
2013-10-02 21:30:00,68.1,65.4,29.93,ESE,123,0.0,0.0,91,0.00,,,0.01,0,Wunderground v.1.15,2013-10-03 02:30:00,
2013-10-02 21:35:00,68.3,65.6,29.92,ESE,123,0.0,3.0,91,0.00,,,0.01,0,Wunderground v.1.15,2013-10-03 02:35:00,
2013-10-02 21:40:00,68.5,65.4,29.92,ESE,123,1.0,2.0,90,0.00,,,0.01,0,Wunderground v.1.15,2013-10-03 02:40:00,
2013-10-02 21:45:00,68.5,65.4,29.92,ESE,123,2.0,2.0,90,0.00,,,0.01,0,Wunderground v.1.15,2013-10-03 02:45:00,
2013-10-02 21:50:00,68.5,65.1,29.92,ESE,123,2.0,2.0,89,0.00,,,0.01,0,Wunderground v.1.15,2013-10-03 02:50:00,
2013-10-02 22:00:00,68.5,65.4,29.93,ESE,123,2.0,2.0,90,0.00,,,0.01,0,Wunderground v.1.15,2013-10-03 03:00:00,
2013-10-02 22:05:00,68.4,65.7,29.92,ESE,123,2.0,2.0,91,0.00,,,0.01,0,Wunderground v.1.15,2013-10-03 03:05:00,
2013-10-02 22:10:00,68.4,65.7,29.92,ESE,123,2.0,3.0,91,0.00,,,0.01,0,Wunderground v.1.15,2013-10-03 03:10:00,
2013-10-02 22:15:00,68.3,65.6,29.92,ESE,123,3.0,3.0,91,0.00,,,0.01,0,Wunderground v.1.15,2013-10-03 03:15:00,
2013-10-02 22:20:00,68.3,65.6,29.93,ESE,123,2.0,2.0,91,0.00,,,0.01,0,Wunderground v.1.15,2013-10-03 03:20:00,
2013-10-02 22:25:00,68.2,65.8,29.93,ESE,123,2.0,3.0,92,0.00,,,0.01,0,Wunderground v.1.15,2013-10-03 03:25:00,
2013-10-02 22:35:00,68.5,66.4,29.93,SE,127,4.0,4.0,93,0.00,,,0.01,0,Wunderground v.1.15,2013-10-03 03:35:00,
2013-10-02 22:40:00,68.6,66.5,29.93,SE,129,4.0,4.0,93,0.00,,,0.01,0,Wunderground v.1.15,2013-10-03 03:40:00,
2013-10-02 22:45:00,68.6,66.5,29.94,SE,130,4.0,5.0,93,0.00,,,0.01,0,Wunderground v.1.15,2013-10-03 03:45:00,
2013-10-02 22:50:00,68.7,66.6,29.93,SE,133,5.0,9.0,93,0.00,,,0.01,0,Wunderground v.1.15,2013-10-03 03:50:00,
2013-10-02 22:55:00,68.7,66.6,29.93,SE,133,5.0,9.0,93,0.00,,,0.01,0,Wunderground v.1.15,2013-10-03 03:55:00,
2013-10-02 23:05:00,68.7,66.6,29.92,SE,132,4.0,5.0,93,0.00,,,0.01,0,Wunderground v.1.15,2013-10-03 04:05:00,
2013-10-02 23:10:00,68.7,66.6,29.92,SE,132,4.0,4.0,93,0.00,,,0.01,0,Wunderground v.1.15,2013-10-03 04:10:00,
2013-10-02 23:15:00,68.7,66.6,29.92,SE,132,3.0,4.0,93,0.00,,,0.01,0,Wunderground v.1.15,2013-10-03 04:15:00,
2013-10-02 23:20:00,68.8,67.0,29.92,SE,132,3.0,3.0,94,0.00,,,0.01,0,Wunderground v.1.15,2013-10-03 04:20:00,
2013-10-02 23:25:00,68.8,67.0,29.92,SE,132,3.0,3.0,94,0.00,,,0.01,0,Wunderground v.1.15,2013-10-03 04:25:00,
2013-10-02 23:30:00,68.9,67.1,29.92,SE,132,3.0,3.0,94,0.00,,,0.01,0,Wunderground v.1.15,2013-10-03 04:30:00,
2013-10-02 23:35:00,68.9,67.1,29.92,SE,132,3.0,3.0,94,0.00,,,0.01,0,Wunderground v.1.15,2013-10-03 04:35:00,
2013-10-02 23:40:00,68.9,67.1,29.92,SE,132,2.0,3.0,94,0.00,,,0.01,0,Wunderground v.1.15,2013-10-03 04:40:00,
2013-10-02 23:45:00,68.9,67.1,29.92,SE,132,1.0,3.0,94,0.00,,,0.01,0,Wunderground v.1.15,2013-10-03 04:45:00,
2013-10-02 23:50:00,68.8,66.7,29.92,SE,132,1.0,2.0,93,0.00,,,0.01,0,Wunderground v.1.15,2013-10-03 04:50:00,
2013-10-02 23:59:00,68.8,66.7,29.92,SE,135,2.0,3.0,93,0.00,,,0.00,0,Wunderground v.1.15,2013-10-03 04:59:00,